Find Starlink 32631

NORAD ID: 62235 Int'l Des: 2024-231 Owner: SPXS Country: US Constellation: starlink operational
LEOCIRCULAR

現在のビュー

3D地球を読み込み中...

About Starlink 32631

Starlink 32631 (NORAD 62235) is a starlink constellation satellite (v2 mini) launched Dec 5, 2024 by SPXS of US. It operates in LEO, CIRCULAR orbit with a mass of 730.00 kg.

次回通過

Passes for default location (London). Set your location on the main map for personalized predictions.

高度履歴

Loading altitude history...

軌道要素

1 62235U 24231T 26263.59159112 .00020058 00000-0 65573-3 0 9996
2 62235 53.1584 19.7834 0002053 92.3510 267.7727 15.31731466101803
Epoch: Sep 20, 2026 • Age: 12 hours

現在のステータス

高度 473.0 km
遠地点 / 近地点 N/A
速度 7.63 km/s
衛星直下点 -7.80°S, 173.63°E
打ち上げ日 Dec 5, 2024
運用期間 1.7 years
タイプ internet

技術仕様

分類 Payload
質量 730.00 kg
乾燥質量 700.00 kg
長さ 0.30 m
スパン 29.00 m
形状 ? Box + pan
製造者 SPXS
バスタイプ Starlink V2M
フェーズステータス In Orbit
所有者/国 SPXS/US

Most Searched